Baker, MT

5:08 PM MST on February 06, 2016 (GMT -0700)
Baker Municipal

Weather History for KBHK - March, 2013

Change the Weather History Date:

Friday, March 8, 2013

  Actual Average Record
Temperature  
Mean Temperature 30 °F -  
Max Temperature 37 °F 47 °F 57 °F (2007)
Min Temperature 23 °F 26 °F -16 °F (2003)
Degree Days  
Heating Degree Days 35    
Moisture  
Dew Point 26 °F    
Average Humidity 80    
Maximum Humidity 89    
Minimum Humidity 67    
Precipitation  
Precipitation 0.00 in - - ()
Sea Level Pressure  
Sea Level Pressure 30.04 in    
Wind  
Wind Speed 10 mph (ESE)    
Max Wind Speed 17 mph    
Max Gust Speed -    
Visibility 9 miles    
Events Snow    
Averages and records for this station are not official NWS values.
T = Trace of Precipitation, MM = Missing Value Source: NWS Daily Summary

Daily Weather History Graph

Daily Weather History Graph

Search for Another Location

Airport or City:

Trip Planner

Search our weather history database for the weather conditions in past years. The results will help you decide how hot, cold, wet, or windy it might be!

Date:

Astronomy

Mar. 08, 2013 Rise Set
Actual Time 6:22 AM MST 5:53 PM MST
Civil Twilight 5:52 AM MST 6:23 PM MST
Nautical Twilight 5:17 AM MST 6:58 PM MST
Astronomical Twilight 4:42 AM MST 7:33 PM MST
Moon 4:18 AM MST (3/8) 2:43 PM MST (3/8)
Length of Visible Light 12h 30m
Length of Day
11h 30m
Waning Crescent, 11% of the Moon is Illuminated
Mar 8
Waning Crescent
Mar 11
New
Mar 19
First Quarter
Mar 27
Full
Apr 2
Last Quarter

Hourly Weather History & Observations

Time (MST) Temp. Windchill Dew Point Humidity Pressure Visibility Wind Dir Wind Speed Gust Speed Precip Events Conditions
12:51 AM 25.0 °F 20.7 °F 21.0 °F 85% 30.18 in 10.0 mi ESE 3.5 mph - N/A   Clear
1:51 AM 25.0 °F 20.7 °F 21.0 °F 85% 30.18 in 10.0 mi East 3.5 mph - N/A   Clear
3:51 AM 23.0 °F 17.0 °F 19.9 °F 88% 30.15 in 10.0 mi ESE 4.6 mph - N/A   Scattered Clouds
4:51 AM 25.0 °F - 21.0 °F 85% 30.14 in 10.0 mi Calm Calm - N/A   Overcast
5:51 AM 27.0 °F 18.7 °F 24.1 °F 89% 30.14 in 10.0 mi SE 8.1 mph - N/A   Overcast
6:51 AM 28.9 °F 20.4 °F 25.0 °F 85% 30.14 in 10.0 mi East 9.2 mph - N/A   Overcast
7:51 AM 28.9 °F 19.2 °F 25.0 °F 85% 30.15 in 10.0 mi East 11.5 mph - N/A   Overcast
8:51 AM 30.9 °F 22.2 °F 27.0 °F 85% 30.14 in 10.0 mi East 10.4 mph - N/A   Overcast
10:51 AM 34.0 °F 23.4 °F 27.0 °F 75% 30.12 in 5.0 mi ESE 17.3 mph - 0.00 in Snow Light Snow
11:51 AM 34.0 °F 24.2 °F 28.0 °F 79% 30.10 in 10.0 mi ESE 15.0 mph - 0.00 in   Overcast
12:51 PM 36.0 °F 26.3 °F 28.9 °F 76% 30.06 in 10.0 mi ESE 16.1 mph - N/A   Overcast
1:51 PM 37.0 °F 28.1 °F 28.0 °F 70% 30.02 in 10.0 mi East 15.0 mph - N/A   Overcast
2:51 PM 37.0 °F 27.7 °F 27.0 °F 67% 30.01 in 10.0 mi ESE 16.1 mph - N/A   Overcast
3:51 PM 37.0 °F 27.7 °F 28.0 °F 70% 29.99 in 10.0 mi East 16.1 mph - N/A   Clear
4:51 PM 35.1 °F 24.8 °F 28.0 °F 76% 29.99 in 10.0 mi East 17.3 mph - N/A   Scattered Clouds
4:59 PM 35.6 °F 25.9 °F 28.4 °F 75% 29.91 in 10.0 mi East 16.1 mph - N/A   Mostly Cloudy
5:32 PM 33.8 °F 23.5 °F 28.4 °F 81% 29.92 in 10.0 mi East 16.1 mph - N/A   Overcast
5:51 PM 33.1 °F 23.0 °F 28.0 °F 82% 30.00 in 10.0 mi East 15.0 mph - N/A   Overcast
6:51 PM 33.1 °F 23.4 °F 27.0 °F 78% 29.99 in 10.0 mi East 13.8 mph - N/A   Overcast
7:12 PM 32.0 °F 22.1 °F 26.6 °F 80% 29.92 in 10.0 mi East 13.8 mph - N/A   Overcast
7:51 PM 32.0 °F 20.8 °F 27.0 °F 82% 29.99 in 9.0 mi East 17.3 mph - N/A   Overcast
8:51 PM 30.0 °F 19.5 °F 26.1 °F 85% 30.00 in 8.0 mi ESE 13.8 mph - N/A   Overcast
9:51 PM 30.0 °F 20.0 °F 25.0 °F 82% 29.99 in 7.0 mi ESE 12.7 mph - N/A   Overcast
10:03 PM 30.2 °F 20.2 °F 24.8 °F 80% 29.90 in 8.0 mi ESE 12.7 mph - N/A   Overcast
10:22 PM 30.2 °F 20.2 °F 24.8 °F 80% 29.90 in 8.0 mi ESE 12.7 mph - N/A   Overcast
10:51 PM 30.0 °F 21.1 °F 25.0 °F 82% 29.97 in 8.0 mi SE 10.4 mph - N/A   Overcast
11:51 PM 28.9 °F 19.2 °F 24.1 °F 82% 29.96 in 8.0 mi SE 11.5 mph - N/A   Overcast